Presure
248 235 225 205 199 205 154 136 154 138 216 217 195 211 215 153 190 194 194 182 183 181 180 185 182 188 192 192 192 195 195 181 172 176 182 189 192 199 219 209 166 237 225
210 179 130 142 139 205 154 193 186 149 191 194 190 189 197 217 204 197 193 186 187 182 180 183 177 187 195 179 195 198 195 191 188 200 205 193 202 222 191 216 222 216 215
182 168 170 166 192 161 136 134 210 192 197 205 177 209 204 189 169 188 198 191 191 164 186 188 183 194 197 193 193 197 190 182 208 207 209 220 166 199 222 210 205 222 207
206 171 182 159 153 131 135 159 121 123 128 126 126 142 175 172 171 194 204 197 190 195 192 195 199 188 179 177 177 185 184 193 190 198 192 206 210 214 207 213 207 197 180
212 197 192 208 123 118 182 122 121 123 195 130 136 123 124 120 124 125 125 147 196 129 180 192 200 200 181 197 200 185 194 196 195 203 193 205 187 194 180 175 193 222 201
238 206 202 178 195 143 131 124 123 119 130 149 139 152 116 125 128 125 123 126 140 144 176 169 158 174 198 193 196 204 202 205 197 195 170 173 193 176 179 175 177 205 185
217 214 209 218 198 188 181 123 145 138 158 125 171 166 139 211 173 122 135 128 141 130 164 139 157 198 204 193 209 192 199 204 222 191 174 215 187 177 198 185 193 178 184
208 214 206 205 202 198 174 195 126 175 187 182 168 127 176 118 159 156 172 143 178 158 170 184 143 149 205 201 145 196 141 139 139 143 187 186 174 178 185 187 194 192 188
207 228 206 201 206 187 193 189 198 198 134 190 132 191 127 127 220 161 217 171 184 139 202 126 198 134 162 177 187 226 157 154 196 179 178 185 146 149 189 175 185 191 194
218 197 204 201 195 201 192 194 192 171 185 186 184 186 154 156 198 208 175 187 178 168 174 169 190 180 202 232 182 192 183 198 180 186 187 179 196 192 189 190 195 187 200
202 196 206 181 210 208 192 195 190 186 192 185 202 181 180 192 179 195 187 186 193 190 184 211 178 198 190 182 200 197 194 191 174 183 190 187 190 197 182 169 177 197 199
210 206 202 197 219 191 198 191 182 170 182 179 177 176 198 183 200 197 183 189 206 164 209 188 193 201 177 213 182 177 184 192 184 181 174 198 189 173 196 192 175 200 192
213 204 204 203 199 198 196 194 187 196 186 191 188 187 190 185 186 190 216 175 199 183 183 192 177 187 213 198 202 188 172 177 173 179 199 184 188 190 197 193 194 177 195
230 213 206 199 200 200 205 226 194 199 178 193 197 196 172 174 183 182 183 192 186 185 181 172 182 199 179 207 184 177 189 193 182 209 190 190 185 201 179 191 192 194 202
214 234 222 211 203 202 197 198 201 211 195 187 196 190 190 201 184 183 195 186 194 203 192 190 203 185 189 189 177 192 190 185 196 174 203 186 188 190 194 194 201 202 199
245 244 215 255 224 216 212 198 203 200 200 200 199 199 201 203 205 203 201 202 192 184 198 198 188 193 202 192 196 201 205 186 206 203 200 203 204 209 195 193 192 211 203
214 235 238 247 246 226 230 231 216 215 207 209 207 205 202 200 194 199 199 205 213 214 207 206 197 181 199 206 212 186 211 211 209 214 197 203 212 208 200 208 214 202 237
251 233 214 223 242 245 253 249 245 225 227 238 220 211 210 206 203 193 191 190 196 198 200 202 203 203 199 225 241 257 240 240 227 221 215 214 208 208 198 203 202 206 234
233 245 249 247 202 207 214 228 236 244 245 241 244 240 226 220 215 215 220 255 224 222 221 223 231 249 227 257 213 220 220 248 219 220 219 216 215 213 211 209 227 274 263
232 235 233 244 258 240 242 207 210 225 230 230 235 238 243 241 239 243 241 240 240 246 245 241 239 241 244 245 248 250 252 251 253 258 259 254 261 263 255 194 238 244 244
236 235 239 244 242 238 257 253 248 247 243 223 218 238 228 241 241 245 240 244 240 246 218 237 238 223 232 228 243 232 242 247 245 234 240 227 225 231 229 224 225 225 226
240 246 248 247 247 244 258 256 256 253 253 230 213 227 248 228 231 223 221 219 238 235 223 254 247 219 250 251 243 242 238 240 238 238 237 242 246 236 237 241 241 242 243
249 255 257 258 258 258 254 253 263 266 267 275 286 270 255 260 251 216 252 253 233 213 223 221 221 234 208 209 230 236 234 210 209 225 226 226 231 236 244 245 235 234 232
301 307 311 277 274 274 276 281 284 285 279 279 282 308 307 302 281 268 261 261 218 227 257 239 218 223 224 215 236 244 216 217 216 233 245 255 242 234 228 210 219 223 227
313 320 331 335 341 344 343 343 349 355 359 362 359 349 341 339 325 310 294 282 281 281 289 286 261 232 225 246 236 230 236 251 241 242 245 224 249 247 247 244 248 246 241
410 442 450 445 443 446 406 405 415 304 310 316 324 332 341 345 348 353 354 335 304 297 292 294 291 232 272 261 237 265 261 256 243 243 234 226 229 244 242 246 244 239 231
Wind_Speed
80 86 87 83 81 84 43 44 53 41 73 70 81 78 70 60 73 71 67 67 67 67 69 71 69 70 69 69 68 66 66 68 67 68 67 68 69 69 68 66 65 58 60
67 61 42 39 47 65 47 75 70 43 79 65 74 72 72 68 69 69 70 72 73 73 73 72 70 72 74 68 72 70 69 69 69 70 70 70 70 66 68 67 64 63 61
64 55 67 57 58 49 42 38 76 79 77 72 59 68 64 68 69 70 77 76 76 64 76 75 73 74 74 73 72 72 71 70 73 72 73 68 74 72 67 67 64 63 61
77 61 61 51 52 46 42 44 50 49 46 50 50 53 69 71 72 72 74 77 76 80 78 79 78 73 69 70 72 74 76 75 76 75 74 74 74 71 71 66 67 64 72
80 81 80 65 47 47 76 53 54 55 48 54 54 62 62 61 59 59 59 61 79 67 75 79 78 78 73 75 75 76 78 77 78 78 74 75 67 71 66 75 69 68 69
79 79 82 70 77 51 55 55 58 59 52 63 64 58 61 62 68 67 67 69 71 65 75 73 70 65 80 76 78 79 77 78 79 77 78 72 71 72 77 77 76 71 76
76 86 84 79 76 80 81 66 68 64 66 70 58 65 69 72 73 67 72 75 74 73 77 71 74 82 82 77 81 76 80 81 81 78 79 76 75 78 77 78 79 82 83
73 79 82 85 83 80 76 78 73 68 76 78 70 60 59 60 68 72 70 77 76 76 67 76 72 75 84 86 79 76 80 79 82 77 73 75 82 82 81 82 83 86 88
72 85 83 81 84 76 82 82 87 83 74 78 69 84 70 72 80 74 75 69 69 76 81 74 79 78 82 84 77 84 87 88 76 80 82 78 85 85 84 91 91 92 93
75 73 79 84 85 92 88 87 84 84 83 77 74 82 72 73 83 82 66 83 72 74 73 81 78 75 80 89 78 78 87 82 81 81 79 85 83 84 87 90 93 97 97
69 74 83 71 97 101 87 89 86 82 86 76 98 80 73 92 71 90 82 80 88 88 78 83 81 94 83 83 81 71 78 87 89 89 91 93 90 88 95 102 102 99 104
74 79 84 86 103 90 102 101 89 75 92 83 77 77 102 81 106 107 79 95 94 91 90 95 97 94 88 92 82 87 84 81 86 91 95 96 96 100 97 98 106 105 105
77 81 84 88 91 98 102 106 99 109 104 104 103 99 104 93 94 101 93 88 106 94 93 100 89 91 95 97 88 88 96 93 95 98 100 92 97 100 100 106 106 104 108
83 85 90 90 93 96 100 114 103 119 91 113 105 112 86 89 97 97 102 101 100 98 97 92 96 113 96 106 91 95 96 100 104 115 101 98 102 107 107 108 109 110 117
77 85 95 97 100 103 99 104 107 112 117 104 117 115 114 122 107 102 126 110 122 123 112 114 117 104 113 109 94 109 104 99 113 94 113 100 102 108 110 111 117 116 111
56 67 88 75 107 108 111 105 112 113 117 122 120 120 127 126 131 129 121 126 112 102 124 124 120 129 129 122 128 134 134 106 131 120 112 114 114 123 112 109 110 134 121
66 73 75 65 82 101 108 117 117 122 122 127 130 130 128 124 110 117 118 126 131 134 128 127 119 101 130 136 134 107 136 132 131 126 113 119 123 125 117 125 133 120 129
60 70 78 80 80 83 78 88 107 120 122 116 131 129 127 125 121 105 101 101 116 119 127 132 135 133 121 138 127 122 126 128 129 130 125 121 121 125 110 124 123 125 133
65 69 71 75 89 91 93 96 94 91 93 104 104 116 136 135 135 137 143 100 142 143 145 147 145 117 126 103 125 130 128 124 125 125 121 119 121 125 122 132 132 104 112
78 78 76 79 83 86 89 99 100 105 106 108 109 105 97 95 97 94 104 110 114 104 99 101 100 98 96 96 94 96 97 98 98 95 95 109 101 88 88 78 93 94 96
87 88 90 93 92 88 96 96 97 99 102 109 112 107 111 110 110 103 107 101 104 99 102 103 102 103 100 100 95 99 96 94 94 93 93 93 93 93 94 95 97 98 99
93 98 99 99 101 97 100 103 103 105 106 105 105 109 112 120 120 117 115 115 111 106 109 90 95 93 94 94 97 98 98 97 95 95 94 92 93 93 92 92 92 92 91
99 103 105 107 110 111 106 103 109 112 113 111 113 117 116 119 118 118 114 109 109 109 112 111 111 106 96 95 101 98 99 92 90 94 92 94 95 94 95 94 94 94 95
104 107 109 109 113 115 117 117 116 118 117 116 116 121 118 119 125 122 116 114 112 107 107 113 106 113 108 104 103 95 102 102 96 97 94 89 95 96 93 87 91 92 95
97 99 100 102 104 105 107 110 112 114 113 112 113 115 118 119 124 124 120 118 117 115 116 112 103 106 109 104 108 110 104 95 100 98 95 98 89 90 90 91 89 88 90
84 66 59 58 58 58 68 68 67 106 108 107 106 107 107 106 108 109 110 114 116 117 113 113 109 111 102 98 106 97 94 94 98 96 103 103 99 94 93 90 88 87 91
Wind_Direction
195 202 210 218 225 230 243 233 234 235 233 235 244 242 240 248 248 249 251 251 253 254 257 258 262 264 267 269 271 273 273 271 274 277 278 278 280 282 285 285 282 284 286
206 220 226 230 229 232 234 234 237 235 240 238 243 243 249 246 245 248 248 249 250 252 255 257 261 264 265 270 271 273 274 274 277 279 278 279 282 281 283 284 286 287 287
216 221 224 223 220 232 230 229 231 235 240 241 242 244 243 248 246 247 245 249 251 256 257 258 262 263 264 267 271 275 277 276 280 280 281 282 274 285 286 287 286 290 290
204 224 214 227 233 228 229 235 240 240 237 239 241 242 244 244 248 250 250 251 253 255 258 258 259 264 268 271 273 273 275 278 279 280 281 283 285 286 287 288 289 288 278
202 212 221 211 237 246 232 243 244 245 246 242 250 244 241 248 246 247 248 252 255 251 264 261 264 265 270 269 271 272 274 277 277 279 282 285 282 286 281 277 287 292 289
199 211 215 227 224 239 241 237 241 248 248 250 257 259 261 248 244 250 253 250 253 256 260 261 262 273 267 272 273 274 276 277 277 280 277 275 283 275 278 275 278 290 282
206 208 214 212 221 231 243 235 248 240 252 247 262 258 248 247 252 263 250 254 253 256 259 259 262 268 270 273 275 278 275 275 274 274 273 283 279 277 285 281 286 279 282
212 212 219 220 218 227 244 232 244 255 252 254 259 262 248 263 246 249 252 258 258 259 267 264 263 266 269 271 268 283 270 272 274 280 278 278 273 276 280 283 286 285 284
217 211 220 227 225 244 235 242 233 235 253 252 259 261 260 263 258 259 258 261 266 264 265 268 269 267 262 267 275 278 271 270 277 269 272 274 280 281 281 276 281 284 286
217 224 225 227 235 231 239 238 246 245 253 257 264 265 262 262 262 256 254 265 258 257 261 263 265 265 279 271 270 277 270 272 271 274 276 274 281 280 280 280 284 283 289
223 227 225 238 228 228 241 242 248 249 248 252 251 263 262 259 264 264 265 265 268 268 269 265 264 274 272 266 272 274 276 270 271 276 277 276 278 285 276 281 280 286 291
226 225 227 232 229 237 234 240 247 249 253 256 253 253 253 263 261 266 263 269 272 257 266 275 276 275 258 271 259 260 266 271 268 272 272 284 276 276 287 281 281 292 286
227 231 231 232 232 235 237 240 246 244 252 251 255 258 258 262 264 260 259 258 268 267 269 271 260 269 272 273 276 264 264 264 267 273 282 274 281 283 287 285 286 284 289
230 228 231 237 239 240 239 235 243 241 250 250 250 253 256 257 261 263 263 266 269 269 268 262 268 273 262 278 263 264 273 276 272 282 279 278 278 282 277 284 287 290 294
231 234 233 233 237 240 243 245 246 242 245 252 251 253 256 254 258 259 261 263 266 269 270 272 270 273 276 275 263 277 275 272 279 272 282 276 279 279 281 286 288 291 291
228 234 236 241 236 237 238 242 243 245 246 248 250 251 251 254 254 256 262 261 262 261 267 267 268 268 271 270 273 274 276 274 279 278 278 278 279 280 282 284 286 289 291
246 235 232 236 242 242 241 241 242 242 244 246 248 250 252 256 257 257 258 260 262 261 263 266 265 267 268 269 271 272 272 272 273 275 276 278 277 279 283 283 285 288 286
256 247 246 243 240 240 241 241 246 246 246 249 248 250 252 254 255 258 258 259 261 263 265 265 266 266 265 268 268 267 268 269 271 272 275 275 277 279 281 283 286 286 285
263 264 257 250 248 249 248 243 241 242 242 245 247 250 250 252 254 257 258 257 260 260 261 263 264 265 264 265 268 268 267 269 270 272 274 274 275 275 277 280 281 277 280
268 266 263 261 260 250 249 249 247 246 245 247 247 245 245 244 245 247 250 253 254 256 258 258 260 261 262 264 265 266 266 269 271 270 270 272 275 274 273 277 276 277 279
266 267 265 262 261 258 259 258 255 253 250 250 251 248 248 248 247 247 248 249 250 254 259 258 260 262 261 263 265 266 267 268 268 272 271 272 272 272 273 275 277 279 280
267 266 263 263 263 263 257 256 256 256 255 258 260 254 250 250 249 250 251 254 251 251 258 251 253 262 258 259 262 264 266 267 269 269 270 271 270 272 273 274 276 278 280
263 260 260 261 263 263 265 266 261 258 257 254 253 250 253 253 255 256 251 250 255 258 256 257 261 259 266 268 263 264 266 271 272 271 271 272 274 274 274 275 277 279 279
276 274 271 262 263 265 266 265 263 262 262 263 263 257 253 251 250 252 254 255 261 256 252 251 262 260 263 267 260 260 270 272 272 268 266 266 270 273 276 282 282 282 283
278 276 275 273 271 269 267 267 267 266 265 264 262 260 259 257 253 252 251 252 254 256 259 256 250 260 261 252 257 261 262 259 263 265 266 272 268 270 272 274 277 279 282
283 285 290 290 291 291 280 278 275 264 264 263 261 260 259 259 257 256 255 253 252 254 255 257 256 254 253 253 257 260 258 257 260 261 267 272 273 270 272 275 277 281 284